Location: Muurame
(62.1333°N, 25.6667°E)
Time: 21:16:56
(UTC+00:00)

Daily predictions for brighter satellites

Satellite Brightness Start Highest point End
(mag) Time Altitude Azimuth Time Altitude Azimuth Time Altitude Azimuth
Cosmos 1174 4.2 14:28:07 10° WNW 14:31:04 50° SW 14:34:06 10° SE
SMAP 3.3 14:27:13 10° SE 14:31:42 49° ENE 14:36:13 10° NNW
Cosmos 1606 Rocket 3.6 14:27:58 10° N 14:32:19 56° ENE 14:36:37 10° SSE
Cosmos 2219 Rocket 2.2 14:27:28 10° NW 14:33:10 64° NE 14:38:50 10° ESE
Cosmos 1378 3.2 14:29:33 10° SSW 14:33:20 84° WNW 14:37:08 10° NNE
CORIOLIS 4.3 14:29:37 10° SE 14:34:49 52° ENE 14:40:02 10° NNW
Okean O Rocket 1.7 14:31:12 10° SSE 14:35:39 90° NNW 14:40:10 10° NNW
Cosmos 1726 Rocket 3.7 14:31:35 10° N 14:35:55 52° ENE 14:40:11 10° SE
NOSS 0 Rocket 4.1 14:30:52 10° NW 14:37:05 60° NNE 14:43:15 10° ESE
Cosmos 1689 Rocket 3.4 14:34:58 10° NE 14:37:26 23° E 14:39:52 10° SSE
H-2A R/B 3.0 14:37:33 10° SE 14:41:17 49° ENE 14:45:04 10° N
Cosmos 1484 Rocket 4.2 14:38:23 10° S 14:42:00 41° W 14:45:36 10° NNW
Cosmos 1943 4.1 14:38:48 10° WNW 14:43:56 34° N 14:49:04 10° ENE
Cosmos 1354 Rocket 4.4 14:39:09 10° SW 14:44:26 64° NW 14:49:47 10° NE
Cosmos 968 Rocket 4.0 14:40:19 10° WSW 14:45:22 55° NW 14:50:26 10° NNE
Meteor 1-28 Rocket 3.2 14:41:35 10° NNE 14:45:25 75° ESE 14:49:13 10° S
Cosmos 1818 4.4 14:40:56 10° SSW 14:45:57 39° SE 14:51:00 10° ENE
SeaSat 1 3.5 14:41:54 10° NE 14:46:19 33° NNW 14:50:43 10° W
SL-08 ROCKET BODY 4.5 14:41:18 10° S 14:47:04 58° E 14:52:49 10° NNE
Cosmos 1536 Rocket 3.6 14:43:14 10° S 14:47:33 67° E 14:51:53 10° NNE
CZ-4C R/B 3.3 14:45:21 10° NNE 14:48:50 72° WNW 14:52:23 10° SSW
SAR-Lupe-1 4.2 14:45:41 10° NNE 14:49:17 81° WNW 14:52:52 10° SSW
COSMOS 2406 3.6 14:44:19 10° WSW 14:49:59 62° NW 14:55:38 10° NE
Cosmos 1745 Rocket 4.0 14:44:22 10° S 14:50:29 70° E 14:56:36 10° NNE
NOAA 12 4.2 14:45:40 10° SE 14:50:45 53° ENE 14:55:52 10° NNW
Cosmos 1461 3.2 14:47:06 10° WNW 14:51:17 74° SSW 14:55:38 10° SE
H-2A R/B 3.5 14:48:30 10° ENE 14:51:30 16° NNE 14:54:33 10° N
Alouette 2 Rocket 3.9 14:47:57 10° NNW 14:51:36 42° ENE 14:56:22 10° SE
USA 267 4.3 14:46:46 10° E 14:52:43 36° SSE 14:58:38 10° SSW
IRS-1C Rocket 4.1 14:49:57 10° SSE 14:55:12 73° ENE 15:00:29 10° NNW
ERS-2 4.0 14:52:13 10° N 14:55:17 25° NW 14:58:20 10° WSW
Cosmos 1025 Rocket 3.0 14:51:58 10° S 14:56:15 76° ESE 15:00:33 10° NNE
Cosmos 1833 Rocket 2.8 14:50:36 10° SW 14:56:16 77° NW 15:01:58 10° NE
Cosmos 2285 Rocket 4.0 14:50:58 10° SSW 14:57:17 80° ESE 15:03:37 10° NE
Cosmos 494 Rocket 4.2 14:52:53 10° NNW 14:57:52 46° NE 15:02:48 10° ESE
Meteor 2-10 4.1 14:52:39 10° NNW 14:57:55 87° WSW 15:03:00 10° SSE
Landsat 5 3.8 14:54:26 10° NNE 14:58:59 81° WNW 15:03:31 10° SSW
Cosmos 1842 3.5 14:55:03 10° SSW 14:59:00 72° WNW 15:02:59 10° NNE
YAOGAN 6 3.3 14:56:34 10° SE 14:59:54 33° ENE 15:03:14 10° N
Cosmos 1437 Rocket 2.7 14:57:17 10° S 15:01:09 68° ESE 15:04:58 10° NNE
Ariane Rocket 4.1 14:57:23 10° E 15:01:19 23° NE 15:05:16 10° N
CZ-4B R/B 1.2 14:58:25 10° NNE 15:01:33 64° ESE 15:04:37 10° S
Feng Yun 1-1 Rocket 4.3 14:55:49 10° SSE 15:01:34 79° ENE 15:07:29 10° NNW
Cosmos 2181 Rocket 4.1 14:55:19 10° NNW 15:01:44 80° ENE 15:08:13 10° SSE
H-2A R/B 2.8 14:58:40 10° NNE 15:02:57 54° WNW 15:07:18 10° SW
Cosmos 1241 Rocket 4.4 14:56:58 10° WNW 15:03:14 83° NNE 15:09:29 10° ESE
ALOS 3.7 15:02:47 10° SSW 15:07:13 42° W 15:11:41 10° NNW
NOSS 2-1 (C) 3.8 15:04:07 10° WNW 15:08:18 86° NNE 15:13:59 10° ESE
Cosmos 1707 2.7 15:07:18 10° S 15:11:11 67° E 15:15:06 10° NNE
CZ-4C R/B 3.0 15:05:05 10° WNW 15:11:33 76° SSW 15:19:15 10° SE
Cosmos 2333 Rocket 2.3 15:05:48 10° NW 15:11:37 89° SW 15:17:21 10° SE
NOSS 2-1 (D) 3.8 15:07:54 10° WNW 15:12:06 87° NNE 15:17:49 10° ESE
Meteor 2-16 Rocket 4.4 15:06:00 10° S 15:12:08 76° E 15:18:16 10° NNE
Cosmos 2082 Rocket 2.3 15:07:54 10° SW 15:13:35 81° NW 15:18:56 12° NE
Helios 1A Rocket 3.8 15:09:48 10° S 15:13:46 54° WSW 15:17:47 10° NNW
ARGOS 4.4 15:10:41 11° E 15:14:15 20° NE 15:18:06 10° N
Cosmos 1898 Rocket 4.1 15:09:39 10° S 15:14:32 38° ESE 15:19:01 12° NE
Cosmos 2322 Rocket 4.2 15:10:43 10° NW 15:15:47 33° WSW 15:20:49 10° S
Cosmos 2228 3.2 15:12:36 10° NNW 15:17:00 77° WSW 15:21:20 10° S
Cosmos 1340 Rocket 3.4 15:14:03 10° N 15:17:39 33° ENE 15:21:15 10° SE
CZ-4B R/B 4.3 15:12:33 10° S 15:18:05 51° W 15:23:38 10° NNW
SJ 16-02 2.0 15:14:04 10° S 15:18:08 37° ESE 15:21:36 14° NE
Cosmos 2237 Rocket 2.2 15:13:19 10° NW 15:18:57 61° NE 15:24:32 10° ESE
Cosmos 1386 Rocket 4.5 15:13:42 10° SSW 15:19:48 90° WNW 15:26:02 10° NNE
Meteor 2-5 Rocket 4.3 15:14:54 10° SSE 15:19:51 35° E 15:24:52 10° NNE
CSL-04 Debris 4.5 15:14:46 10° SE 15:19:51 44° NE 15:24:59 10° NNW
Meteor 1-4 Rocket 3.8 15:18:19 10° SW 15:21:43 38° WNW 15:25:04 10° N
Meteor 1-24 Rocket 4.5 15:17:26 10° SE 15:21:53 28° E 15:26:25 10° NNE
Cosmos 1953 3.6 15:18:05 10° NNW 15:22:00 45° W 15:25:53 10° SSW
AQUARIUS 4.3 15:20:50 10° SSE 15:25:21 83° WSW 15:29:54 10° NNW
CZ-2D R/B 4.1 15:22:03 10° ESE 15:25:22 28° ENE 15:28:42 10° N
Cosmos 1937 Rocket 4.1 15:22:30 10° S 15:27:18 37° ESE 15:31:17 14° NE
Cosmos 1777 Rocket 4.2 15:22:57 10° SW 15:28:12 72° NW 15:33:18 11° NE
Cosmos 1812 Rocket 3.9 15:25:03 10° N 15:29:18 42° ENE 15:33:33 10° SE
Cosmos 1892 Rocket 4.0 15:25:17 10° SSE 15:29:32 43° E 15:33:47 10° NNE
ATLAS CENTAUR R/B 1.6 15:25:49 10° WNW 15:30:18 62° N 15:33:21 18° E
Cosmos 1908 3.3 15:27:58 10° NNW 15:31:54 82° WSW 15:35:47 10° S
Cosmos 2074 Rocket 4.3 15:28:32 10° SSE 15:34:26 44° E 15:40:21 10° NNE
Meteor 2-10 Rocket 4.3 15:29:49 10° NNW 15:34:50 32° NE 15:39:39 10° ESE
Cosmos 1939 Rocket 3.5 15:31:55 10° ESE 15:35:27 33° ENE 15:39:04 10° N
FengYun 1-2 T 4.2 15:31:12 10° SSE 15:36:50 73° ENE 15:42:30 10° NNW
SL-16 R/B 2.5 15:31:36 10° NW 15:37:09 48° NNE 15:41:55 14° E
Okean 1-7 Rocket 3.8 15:33:18 10° SSE 15:37:30 46° E 15:41:46 10° NNE
Cosmos 1300 2.8 15:35:02 10° N 15:38:48 52° ENE 15:42:32 10° SSE
In-Cosmos 22 4.1 15:34:37 10° S 15:39:55 65° ESE 15:45:10 10° NNE
SL-14 R/B 4.5 15:37:20 10° SE 15:40:30 23° E 15:41:17 21° ENE
CZ-4 R/B 4.4 15:36:41 10° SE 15:40:46 59° ENE 15:44:50 10° NNW
COSMOS 2487 3.1 15:37:33 10° S 15:40:46 36° ESE 15:42:18 24° ENE
Meteor 2-1 Rocket 4.3 15:36:45 10° NNW 15:42:11 53° ENE 15:47:34 10° SE
Cosmos 2058 Rocket 3.3 15:38:31 10° NNW 15:42:54 73° WSW 15:47:15 10° S
Cosmos 1269 Rocket 4.0 15:38:00 10° NW 15:43:18 64° NE 15:48:34 10° SE
Cosmos 1674 2.9 15:39:55 10° S 15:43:29 45° E 15:46:16 15° NNE
Nadezhda 3 Rocket 4.0 15:37:50 10° NNW 15:44:03 64° ENE 15:50:18 10° SSE
YAOGAN 1 2.7 15:42:13 10° SE 15:46:26 53° ENE 15:50:40 10° NNW
Cosmos 1603 4.4 15:43:00 10° NW 15:48:20 38° NNE 15:51:36 21° ENE
SL-27 R/B 3.0 15:46:31 10° SW 15:50:06 58° NW 15:52:49 17° NNE
Cosmos 2221 4.4 15:49:18 10° N 15:50:49 14° NNE 15:50:49 14° NNE
KORONAS-FOTON 4.0 15:48:22 10° S 15:52:02 49° E 15:54:42 17° NNE
SL-16 R/B 4.0 15:46:56 10° NNE 15:52:11 30° NW 15:57:27 10° W
CSL-04 Rocket 3.7 15:47:02 10° SE 15:52:28 64° ENE 15:57:59 10° NNW
Cosmos 1271 Rocket 3.5 15:49:57 10° SSE 15:53:14 29° E 15:53:54 27° ENE
Cosmos 1048 Rocket 4.2 15:48:23 10° NW 15:53:35 73° WSW 15:58:42 10° SSE
Cosmos 1455 3.1 15:52:56 10° N 15:56:17 27° ENE 15:56:17 27° ENE
CZ-4 R/B 1.3 15:52:20 10° SSE 15:56:22 70° ENE 16:00:31 10° NNW
Envisat 3.3 15:51:17 10° S 15:56:22 73° WSW 16:01:30 10° NNW
Cosmos 1726 4.0 15:53:09 10° NNW 15:56:28 33° W 15:59:47 10° SSW
Cosmos 1709 Rocket 4.0 15:51:14 10° SSW 15:57:22 82° WNW 16:03:35 10° NNE
NOSS 2-1 (E) 4.1 15:54:10 10° WNW 15:58:37 77° SSW 16:04:34 11° ESE
Cosmos-2242 3.5 15:55:44 10° N 15:59:50 37° ENE 16:03:33 12° SE
COBE Rocket 4.0 15:55:07 10° NNE 16:00:11 87° WNW 16:05:20 10° SSW
Cosmos 1980 3.7 15:54:34 10° NW 16:00:19 88° NE 16:06:02 10° SE
NOSS 3-3 (A) 4.2 15:54:20 10° W 16:00:55 82° N 16:06:02 22° E
NOSS 3-3 (C) 4.2 15:54:27 10° W 16:01:01 82° N 16:06:08 22° E
ATLAS 5 CENTAUR R/B 2.8 15:57:25 10° S 16:01:10 27° SE 16:02:38 23° E
Cosmos 839 Rocket 4.0 15:56:03 10° SW 16:02:13 76° SE 16:06:30 22° ENE
COSMO-SKYMED 1 3.2 16:01:14 24° NE 16:03:08 34° E 16:07:08 10° SSE
Okean-O 3.0 15:59:27 10° S 16:03:51 67° WSW 16:08:19 10° NNW
Cosmos 2084 3.5 16:00:38 10° WSW 16:05:08 80° SSE 16:07:20 30° ENE
Cosmos 1602 Rocket 4.2 16:02:00 10° SSE 16:05:55 33° E 16:07:06 28° ENE
COSMOS 2428 3.5 16:01:05 10° NW 16:06:42 55° WSW 16:12:17 10° SSE
Cosmos 2360 Rocket 4.4 16:02:16 10° NW 16:06:59 28° WSW 16:11:39 10° SSW
Iridium 4 Rocket 4.2 16:03:48 10° SSW 16:07:47 43° WNW 16:11:54 10° N
Cosmos 1689 Rocket 3.3 16:06:28 12° N 16:08:57 41° WNW 16:11:45 10° SW
Okean O Rocket 4.4 16:09:17 10° SW 16:12:38 21° W 16:16:02 10° NW
Resurs 01 Rocket 3.3 16:13:41 17° NNE 16:13:41 17° NNE 16:15:46 10° N
Cosmos 2219 Rocket 3.2 16:11:38 10° NW 16:17:05 48° WSW 16:22:30 10° S
Cosmos 858 Rocket 4.5 16:12:12 10° SSW 16:17:28 71° ESE 16:20:50 23° NE
Cosmos 372 Rocket 4.4 16:15:25 10° S 16:20:12 41° ESE 16:21:54 31° ENE
PSLV R/B 4.0 16:17:10 13° NNE 16:20:48 77° WNW 16:24:52 10° SSW
Cosmos 990 Rocket 3.9 16:16:55 10° SSW 16:22:12 86° ESE 16:25:39 22° NE
Cosmos 2298 Rocket 4.4 16:17:41 10° S 16:22:41 44° ESE 16:24:38 31° ENE
SeaSat 1 3.7 16:21:11 22° NE 16:22:59 28° N 16:27:10 10° NW
Cosmos 1626 2.5 16:19:36 10° SSE 16:22:48 40° ESE 16:22:48 40° ESE
NOAA 11 4.1 16:18:10 10° SSE 16:23:42 86° ENE 16:29:14 10° NNW
NOSS 0 Rocket 4.4 16:17:33 10° NW 16:23:44 62° SW 16:29:51 10° SSE
IRS-1A Rocket 4.3 16:21:30 10° SE 16:27:10 60° ENE 16:32:46 10° NNW
ADEOS Rocket 3.8 16:27:10 29° E 16:27:22 29° E 16:33:03 10° SSE
CZ-2C R/B 3.7 16:27:08 32° E 16:28:36 38° NE 16:33:44 10° NNW
Cosmos 1818 3.5 16:23:43 10° WSW 16:29:13 90° SSE 16:31:45 33° ENE
Cosmos 1943 3.7 16:23:54 10° NW 16:29:14 41° NNE 16:31:05 32° ENE
H-2A R/B 2.3 16:28:26 34° E 16:29:50 41° ENE 16:34:37 10° NNW
Cosmos 1626 Rocket 3.5 16:25:42 10° S 16:29:57 56° E 16:31:49 31° NNE
YAOGAN 6 3.9 16:29:48 10° S 16:33:21 44° W 16:36:55 10° NNW
CZ-4B R/B 3.7 16:31:16 10° N 16:33:38 20° NW 16:35:57 10° WSW
COSMOS 2406 4.2 16:30:00 10° WNW 16:35:15 36° NNW 16:37:54 24° NE
USA 267 3.6 16:33:10 27° ESE 16:36:39 55° SSE 16:43:04 10° WSW
Cosmos 2251 Rocket 3.5 16:33:16 10° NW 16:38:31 60° NE 16:40:34 35° ESE
Ariane Rocket 2.9 16:34:34 10° SSE 16:39:36 69° ENE 16:44:42 10° NNW
Cosmos 1833 Rocket 3.6 16:35:38 10° W 16:40:57 39° NNW 16:43:45 24° NE
Cosmos 1242 Rocket 2.9 16:40:54 10° S 16:43:37 47° SSE 16:43:37 47° SSE
SL-24 R/B - RUBIN 2 4.3 16:39:43 10° SW 16:45:18 69° SE 16:47:41 38° ENE
Cosmos 2218 Rocket 4.5 16:39:56 10° SSE 16:45:39 37° E 16:51:26 10° NNE
Cosmos 2184 Rocket 3.9 16:40:06 10° SSW 16:46:18 86° WNW 16:52:31 10° NNE
Terra 4.0 16:48:56 12° NNE 16:48:56 12° NNE 16:49:49 10° N
MOS 1 4.2 16:43:04 15° SE 16:47:49 65° ENE 16:53:29 10° NNW
Cosmos 1339 Rocket 4.3 16:42:44 10° NNW 16:48:51 72° ENE 16:54:56 10° SSE
USA 32 4.0 16:45:48 10° S 16:50:55 58° E 16:56:05 10° NNE
SKYMED 2 3.4 16:49:48 38° NNE 16:51:25 75° ESE 16:55:46 10° SSW
ARGOS 3.2 16:52:12 42° ESE 16:53:35 53° ENE 16:58:51 10° NNW
Cosmos 2154 Rocket 3.9 16:47:27 10° S 16:53:44 78° E 17:00:00 10° NNE
Cosmos 1340 Rocket 3.8 16:50:29 10° NNW 16:54:17 47° W 16:58:04 10° S
SPOT 3 Rocket 3.7 16:54:24 47° ENE 16:54:53 49° ENE 16:59:51 10° NNW
Cosmos 2333 Rocket 4.1 16:50:27 10° NW 16:55:22 30° WSW 17:00:14 10° SSW
Meteor 1-21 Rocket 4.4 16:50:28 10° SSE 16:55:46 45° E 16:55:55 45° E
Cosmos 1898 Rocket 3.8 16:51:09 10° SW 16:56:28 66° NW 16:59:19 27° NNE
SJ 16-02 2.0 16:52:17 10° SW 16:56:38 54° NW 16:58:36 30° NNE
Cosmos 2150 Rocket 3.9 16:52:07 10° SSW 16:57:12 63° ESE 16:58:16 51° ENE
Cosmos 2082 Rocket 3.1 16:53:03 10° W 16:58:22 40° NNW 17:00:48 27° NNE
SJ-11-01 4.2 16:56:22 32° SE 16:58:35 74° ENE 17:03:21 10° NNW
CZ-2D R/B 3.8 16:55:45 10° S 16:59:32 58° WSW 17:03:22 10° NNW
CZ-4C R/B 4.1 16:53:30 10° WNW 16:59:44 39° SW 17:06:51 10° SSE
SJ-6B 4.3 17:03:29 24° N 17:03:29 24° N 17:05:14 10° N
Meteor 2-17 Rocket 4.3 16:56:32 10° S 17:02:38 68° E 17:08:44 10° NNE
ATLAS 5 CENTAUR R/B 2.8 16:59:34 10° W 17:02:45 66° SSW 17:05:45 33° ESE
Meteor 2-5 Rocket 4.0 16:57:28 10° SSW 17:02:59 66° WNW 17:08:37 10° NNE
Cosmos 2237 Rocket 3.0 16:57:35 10° NW 17:03:03 51° WSW 17:08:28 10° SSE
Meteor 1-24 Rocket 3.7 16:59:12 10° SSW 17:04:32 78° WNW 17:09:35 12° NNE
Cosmos 1937 Rocket 3.8 17:03:48 10° SW 17:09:03 68° NW 17:11:28 33° NNE
ATLAS CENTAUR R/B 1.3 17:05:05 10° WNW 17:09:29 84° SSW 17:09:32 83° S
Cosmos 1939 Rocket 3.7 17:06:31 10° S 17:10:19 48° W 17:14:12 10° NNW
Cosmos 1610 Rocket 4.5 17:06:13 10° SSW 17:12:22 83° WNW 17:18:36 10° NNE
COSMOS 2487 3.5 17:12:32 10° WSW 17:15:52 41° NW 17:15:52 41° NW
SL-14 R/B 3.5 17:12:20 10° SSW 17:16:20 67° WNW 17:16:47 61° NNW
Meteor 2-10 Rocket 3.6 17:11:55 10° NNW 17:17:32 80° WSW 17:22:27 12° S
Cosmos 1674 4.4 17:15:50 10° SW 17:19:11 31° WNW 17:21:07 19° NNW
Cosmos 1000 Rocket 4.5 17:14:57 10° NNW 17:21:01 54° ENE 17:21:12 54° ENE
SL-16 R/B 2.3 17:15:57 10° NW 17:21:40 74° SW 17:23:51 39° SSE
Cosmos 1125 Rocket 3.7 17:17:15 10° SSW 17:21:37 54° SSE 17:21:37 54° SSE
YAOGAN 1 4.2 17:18:48 10° SSW 17:22:45 34° W 17:26:44 10° NNW
Cosmos 2366 rocket 4.4 17:20:46 10° S 17:31:05 20° NNE 17:32:56 10° NNE
Cosmos 1295 Rocket 4.5 17:22:14 10° SSW 17:28:37 86° WNW 17:34:59 10° NNE
Cosmos 1271 Rocket 3.6 17:25:28 10° SW 17:29:05 47° WNW 17:29:05 47° WNW
Cosmos 2221 4.4 17:26:11 10° N 17:27:41 21° N 17:27:41 21° N
CZ-4 R/B 3.8 17:28:31 10° SW 17:31:50 24° W 17:35:13 10° NW
Cosmos 1455 3.2 17:28:24 10° NNW 17:31:15 43° NW 17:31:15 43° NW
Cosmos 1833 4.3 17:26:38 10° SW 17:32:22 77° NW 17:33:48 52° NNE
Cosmos 1603 3.6 17:27:36 10° NW 17:33:20 68° NE 17:33:30 68° NE
Cosmos 962 Rocket 4.4 17:28:54 10° SSW 17:35:03 89° WNW 17:41:17 10° NNE
Cosmos-2242 4.0 17:33:20 10° NNW 17:37:33 47° W 17:40:34 17° SSW
Cosmos 614 Rocket 4.4 17:32:55 10° NNW 17:37:11 51° N 17:37:11 51° N
COSMO-SKYMED 1 3.3 17:38:26 41° NNW 17:39:32 52° WNW 17:43:45 10° SW
Cosmos 1727 Rocket 3.9 17:33:40 10° NNW 17:39:57 85° WSW 17:43:26 28° S
Timation 2 Rocket 3.8 17:34:58 10° SSW 17:41:07 71° SE 17:41:26 69° ESE
Cosmos 1140 Rocket 4.2 17:36:19 10° NNW 17:40:24 43° N 17:40:24 43° N
SL-24 R/B 4.4 17:42:30 77° WNW 17:42:30 77° WNW 17:47:23 10° NNW
Cosmos 1602 Rocket 4.3 17:39:22 10° SW 17:43:40 52° WNW 17:44:18 47° NW
Cosmos 2084 4.1 17:40:17 10° W 17:43:53 56° WNW 17:43:53 56° WNW
ATLAS 5 CENTAUR R/B 2.2 17:40:37 10° WSW 17:44:11 54° SW 17:44:11 54° SW
Meteor 2-2 Rocket 4.3 17:41:22 10° NNW 17:47:07 71° NE 17:47:07 71° NE
Resurs 01 Rocket 3.5 17:51:14 22° N 17:51:14 22° N 17:52:55 10° NNW
Cosmos 407 Rocket 4.0 17:45:06 10° NW 17:49:26 52° N 17:49:26 52° N
NOSS 3-3 (A) 4.2 17:45:19 10° WNW 17:52:12 89° SSW 17:53:29 65° ESE
NOSS 3-3 (C) 4.2 17:45:26 10° WNW 17:52:19 89° SSW 17:53:35 65° ESE
Cosmos 2341 Rocket 4.1 17:46:25 10° SSW 17:52:50 79° WNW 17:59:14 10° NNE
Cosmos 2297 Rocket 4.4 17:47:40 10° S 17:47:59 11° S 17:47:59 11° S
Cosmos 1626 4.1 17:55:07 10° SW 17:57:25 27° W 17:57:25 27° W
MetOp-A 4.4 18:00:32 60° NNW 18:00:32 60° NNW 18:04:56 10° NNW
SeaSat 1 3.6 18:00:58 34° N 18:00:58 34° N 18:04:21 10° NW
Cosmos 372 Rocket 4.3 17:56:44 10° SW 18:01:51 61° NW 18:01:52 61° NW
Cosmos 839 Rocket 4.2 17:56:18 10° W 18:02:27 66° N 18:03:07 62° NNE
Cosmos 2298 Rocket 4.4 17:59:42 10° SW 18:04:58 59° NW 18:05:11 59° NW
SL-8 Rocket 4.0 17:59:41 10° SSW 18:06:02 82° WNW 18:12:22 10° NNE
CZ-2C R/B 3.3 18:08:11 69° WSW 18:08:13 69° WSW 18:13:50 10° NNW
H-2A R/B 2.5 18:09:02 54° WSW 18:09:14 55° W 18:14:16 10° NNW
Cosmos 1818 4.0 18:07:41 10° W 18:12:24 58° NW 18:12:24 58° NW
ADEOS Rocket 3.0 18:14:04 79° SSW 18:14:04 79° SSW 18:20:21 10° SSW
Cosmos 1943 3.5 18:08:16 10° NW 18:12:54 61° NW 18:12:54 61° NW
USA 267 3.5 18:20:30 57° SSW 18:20:30 57° SSW 18:26:49 10° W
Cosmos 2251 Rocket 4.5 18:15:46 10° NW 18:20:44 42° WSW 18:21:05 42° WSW
COSMOS 2406 4.3 18:15:34 10° NW 18:19:58 36° N 18:19:58 36° N
Terra 4.3 18:27:48 14° N 18:27:48 14° N 18:28:32 10° N
Cosmos 1833 Rocket 3.9 18:20:59 10° WNW 18:25:26 34° N 18:25:26 34° N
Cosmos 2218 Rocket 4.2 18:24:30 10° SSW 18:30:50 71° WNW 18:37:17 10° NNE
ARGOS 4.1 18:33:41 44° WSW 18:34:02 44° W 18:39:13 10° NNW
SJ 16-02 3.6 18:32:42 10° WNW 18:35:37 21° NW 18:35:37 21° NW
Cosmos 2082 Rocket 3.5 18:38:34 10° WNW 18:42:38 32° NNW 18:42:38 32° NNW
ATLAS CENTAUR R/B 4.1 18:44:20 10° WNW 18:45:44 18° W 18:45:44 18° W
SL-16 R/B 4.1 19:00:39 10° NW 19:05:01 23° WSW 19:05:46 23° WSW
